Weather History for Baudette, MN

Change the Weather History Date:

Wednesday, February 12, 2014

  Actual Average Record
Temperature  
Mean Temperature -2 °F -  
Max Temperature 6 °F 22 °F 42 °F (1977)
Min Temperature -9 °F -5 °F -37 °F (1936)
Degree Days  
Heating Degree Days 66    
Moisture  
Dew Point -7 °F    
Average Humidity 73    
Maximum Humidity 87    
Minimum Humidity 58    
Precipitation  
Precipitation 0.00 in - - ()
Sea Level Pressure  
Sea Level Pressure 30.03 in    
Wind  
Wind Speed 7 mph (NNE)    
Max Wind Speed 16 mph    
Max Gust Speed -    
Visibility 9 miles    
Events Snow    
Averages and records for this station are not official NWS values.
T = Trace of Precipitation, MM = Missing Value Source: NWS Daily Summary

Daily Weather History Graph

Daily Weather History Graph

Search for Another Location

Airport:

Trip Planner

Search our weather history database for the weather conditions in past years. The results will help you decide how hot, cold, wet, or windy it might be!

Date:

Astronomy

Feb. 12, 2014 Rise Set
Actual Time 7:31 AM CST 5:34 PM CST
Civil Twilight 6:58 AM CST 6:07 PM CST
Nautical Twilight 6:21 AM CST 6:44 PM CST
Astronomical Twilight 5:45 AM CST 7:21 PM CST
Moon 3:45 PM CST (2/12) 5:53 AM CST (2/12)
Length of Visible Light 11h 08m
Length of Day
10h 03m
Waxing Gibbous, 95% of the Moon is Illuminated
Feb 12
Waxing Gibbous
Feb 14
Full
Feb 22
Last Quarter
Mar 1
New
Mar 8
First Quarter

Hourly Weather History & Observations

Time (CST) Temp. Windchill Dew Point Humidity Pressure Visibility Wind Dir Wind Speed Gust Speed Precip Events Conditions
12:53 AM -2.0 °F -17.7 °F -7.1 °F 79% 30.07 in 10.0 mi WNW 9.2 mph - N/A   Clear
1:53 AM -4.0 °F -21.2 °F -8.0 °F 83% 30.09 in 10.0 mi NW 10.4 mph - N/A   Clear
2:53 AM -5.1 °F -15.8 °F -9.0 °F 83% 30.12 in 10.0 mi WNW 4.6 mph - N/A   Clear
3:53 AM -6.0 °F -14.7 °F -9.9 °F 83% 30.12 in 10.0 mi WNW 3.5 mph - N/A   Clear
4:53 AM -5.1 °F -15.8 °F -9.9 °F 80% 30.14 in 10.0 mi WNW 4.6 mph - N/A   Overcast
5:53 AM -5.1 °F -15.8 °F -9.9 °F 80% 30.15 in 10.0 mi WNW 4.6 mph - N/A   Scattered Clouds
6:53 AM -7.1 °F -18.1 °F -11.0 °F 83% 30.16 in 10.0 mi WNW 4.6 mph - N/A   Clear
7:53 AM -9.0 °F - -11.9 °F 87% 30.17 in 10.0 mi Calm Calm - N/A   Overcast
8:53 AM -7.1 °F -19.9 °F -11.9 °F 79% 30.18 in 10.0 mi WNW 5.8 mph - N/A   Clear
9:53 AM -4.0 °F -17.8 °F -9.0 °F 79% 30.17 in 10.0 mi NW 6.9 mph - N/A   Clear
10:53 AM -2.0 °F -13.9 °F -9.0 °F 72% 30.17 in 10.0 mi NW 5.8 mph - N/A   Clear
11:53 AM -0.0 °F -9.9 °F -8.0 °F 69% 30.16 in 10.0 mi NNW 4.6 mph - N/A   Clear
12:53 PM 1.0 °F - -8.0 °F 66% 30.12 in 10.0 mi Calm Calm - N/A   Clear
1:53 PM 3.9 °F -3.4 °F -8.0 °F 58% 30.08 in 10.0 mi NNE 3.5 mph - N/A   Clear
2:53 PM 3.9 °F -3.4 °F -8.0 °F 58% 30.05 in 10.0 mi ESE 3.5 mph - N/A   Scattered Clouds
3:53 PM 5.0 °F -5.6 °F -7.1 °F 58% 30.03 in 10.0 mi ENE 5.8 mph - N/A   Mostly Cloudy
4:53 PM 5.0 °F -2.1 °F -7.1 °F 58% 30.02 in 10.0 mi ENE 3.5 mph - N/A   Overcast
5:53 PM 5.0 °F -6.9 °F -7.1 °F 58% 29.99 in 10.0 mi East 6.9 mph - N/A   Unknown
6:53 PM 3.9 °F -11.3 °F -5.1 °F 66% 29.97 in 4.0 mi ESE 10.4 mph - 0.00 in Snow Light Snow
7:53 PM 3.9 °F -11.3 °F -4.0 °F 70% 29.94 in 10.0 mi ESE 10.4 mph - 0.00 in   Overcast
8:53 PM 3.9 °F -14.3 °F -2.0 °F 76% 29.88 in 4.0 mi ESE 15.0 mph - 0.00 in Snow Light Snow
9:53 PM 3.9 °F -13.0 °F -0.9 °F 80% 29.83 in 3.0 mi ESE 12.7 mph - 0.00 in Snow Light Snow
10:53 PM 5.0 °F -13.6 °F -2.0 °F 73% 29.75 in 10.0 mi ESE 16.1 mph - 0.00 in   Overcast
11:48 PM 6.8 °F -11.3 °F -0.4 °F 72% 29.62 in 1.8 mi ESE 16.1 mph - 0.00 in Snow Light Snow
11:49 PM 6.1 °F -12.2 °F -0.0 °F 76% 29.71 in 1.8 mi ESE 16.1 mph - 0.00 in Snow Light Snow